星链-31703 (STARLINK-31703 )

导读

STARLINK-31703是美国太空探索技术公司Starlink星链互联网卫星星座中的一颗卫星,于2024年5月24日8时发射。星链计划旨在构建全球卫星互联网,该卫星入轨后,将和其他星链卫星协同,为全球多地提供高速互联网接入服务,进一步扩充星链星座的服务覆盖范围与网络容量。

基本信息
目录编号:
59861
目录名称:
STARLINK-31703
国际标识:
2024-098D
轨道中心:
EARTH
卫星名称:
星链-31703
卫星全名:
星链-31703 (STARLINK-31703 )
卫星状态:
已陨落 最后检测时间 2024-11-07
发射日期:
2024-05-24 UTC
国别 :
美国 (US)
星等 :
--
该卫星已列入 空间交会检测服务 Space Conjunction Data Service (SCDS) ,当前飞行风险评估等级: 无高风险
轨道信息
数据来源 国际轨道数据
星历时间: 2024-11-06T13:45:34+0800
轨道信息已过期675天
半长轴: 6587.232km
偏心率: 0.0017787
轨道倾角: 42.976°
近地点辐角 278.364°
升交点赤经 154.077°
平近点角 176.549°
近地点: 197.38km
远地点: 220.814km
周期: 88.678分钟
每日圈数: 16.238593
详细信息
固有亮度:
5
最大亮度:
1.5
卫星平台:
Starlink v2.0 mini
覆盖范围:
全球
运营商:
太空探索技术公司
运营商所在国:
美国
制造商(研发单位):
太空探索技术公司
制造商所在国:
美国
使用方式:
暂无
卫星简介
星链(Starlink)计划是由太空探索技术公司(SpaceX)提出的一个巨型低轨卫星互联网星座项目,计划在2019年至2024年间在太空搭建由约1.2万颗卫星组成的“星链”网络,其中1584颗将部署在地球上空550千米处的近地轨道,并从2020年开始工作。该卫星仍在工作。
与全量物体交会距离演化趋势
与全量物体交会风险概率演化趋势